This is the latest recevied weather packets stored in our database for station/object KN6ZYR. If no packets are shown the sender has not sent any weather packets the latest 10 day(s).
| Time | Temp. | Humidity | Pressure | Rain* | Wind** | Luminosity | Snow |
|---|---|---|---|---|---|---|---|
| 1778018379 | 17.78° C | 42% | 1016.5 hPa | 0 mm | - | 639 W/m² | - |
| 1778018078 | 18.89° C | 40% | 1016.4 hPa | 0 mm | - | 741 W/m² | - |
| 1778017775 | 18.33° C | 42% | 1016.6 hPa | 0 mm | - | 775 W/m² | - |
| 1778017472 | 18.33° C | 43% | 1016.5 hPa | 0 mm | - | 767 W/m² | - |
| 1778017169 | 17.78° C | 44% | 1016.7 hPa | 0 mm | - | 776 W/m² | - |
| 1778016867 | 17.78° C | 45% | 1016.8 hPa | 0 mm | - | 759 W/m² | - |
| 1778016563 | 17.78° C | 46% | 1016.8 hPa | 0 mm | - | 755 W/m² | - |
| 1778016260 | 17.22° C | 46% | 1016.7 hPa | 0 mm | - | 767 W/m² | - |
| 1778015956 | 16.67° C | 44% | 1017 hPa | 0 mm | - | 759 W/m² | - |
| 1778015654 | 17.22° C | 45% | 1017.2 hPa | 0 mm | - | 547 W/m² | - |
| 1778015350 | 16.67° C | 45% | 1016.8 hPa | 0 mm | - | 811 W/m² | - |
| 1778015048 | 17.22° C | 45% | 1017.1 hPa | 0 mm | - | 654 W/m² | - |
| 1778014744 | 17.22° C | 44% | 1016.8 hPa | 0 mm | - | 283 W/m² | - |
| 1778014443 | 16.67° C | 49% | 1017.1 hPa | 0 mm | - | 866 W/m² | - |
| 1778014139 | 16.67° C | 43% | 1017.2 hPa | 0 mm | - | 880 W/m² | - |
| 1778013837 | 17.22° C | 46% | 1017.1 hPa | 0 mm | - | 862 W/m² | - |
| 1778013534 | 16.67° C | 46% | 1017.2 hPa | 0 mm | - | 892 W/m² | - |
| 1778013230 | 17.78° C | 45% | 1017.2 hPa | 0 mm | - | 731 W/m² | - |
| 1778012927 | 17.22° C | 52% | 1017 hPa | 0 mm | - | 931 W/m² | - |
| 1778012623 | 16.67° C | 57% | 1017 hPa | 0 mm | - | 862 W/m² | - |
| 1778012320 | 17.22° C | 46% | 1017.1 hPa | 0 mm | - | 847 W/m² | - |
| 1778012017 | 16.67° C | 56% | 1017.1 hPa | 0 mm | - | 858 W/m² | - |
| 1778011716 | 15.56° C | 51% | 1017.3 hPa | 0 mm | - | 874 W/m² | - |
| 1778011412 | 15.56° C | 51% | 1017.3 hPa | 0 mm | - | 892 W/m² | - |
| 1778011108 | 16.67° C | 54% | 1017.5 hPa | 0 mm | - | 750 W/m² | - |
* Rain latest hour (hover to see other rain measurements)
** Current wind speed in m/s (hover to see current wind gust speed)